Year,Month,Day,Hour,Minute,Value (Times are PST for windgust in km/hr)
2008,02,05,00,00,8.10
2008,02,05,00,01,14.50
2008,02,05,00,02,24.20
2008,02,05,00,03,16.10
2008,02,05,00,04,8.10
2008,02,05,00,05,22.50
2008,02,05,00,06,14.50
2008,02,05,00,07,12.90
2008,02,05,00,08,8.10
2008,02,05,00,09,9.60
2008,02,05,00,10,8.10
2008,02,05,00,11,17.70
2008,02,05,00,12,11.30
2008,02,05,00,13,22.50
2008,02,05,00,14,12.90
2008,02,05,00,15,22.50
2008,02,05,00,16,16.10
2008,02,05,00,17,20.90
2008,02,05,00,18,16.10
2008,02,05,00,19,19.30
2008,02,05,00,20,27.40
2008,02,05,00,21,25.70
2008,02,05,00,22,33.80
2008,02,05,00,23,25.70
2008,02,05,00,24,25.70
2008,02,05,00,25,24.20
2008,02,05,00,26,16.10
2008,02,05,00,27,19.30
2008,02,05,00,28,19.30
2008,02,05,00,29,16.10
2008,02,05,00,30,19.30
2008,02,05,00,31,8.10
2008,02,05,00,32,17.70
2008,02,05,00,33,22.50
2008,02,05,00,34,16.10
2008,02,05,00,35,11.30
2008,02,05,00,36,17.70
2008,02,05,00,37,11.30
2008,02,05,00,38,8.10
2008,02,05,00,39,6.40
2008,02,05,00,40,9.60
2008,02,05,00,41,11.30
2008,02,05,00,42,11.30
2008,02,05,00,43,9.60
2008,02,05,00,44,17.70
2008,02,05,00,45,17.70
2008,02,05,00,46,14.50
2008,02,05,00,47,16.10
2008,02,05,00,48,19.30
2008,02,05,00,49,19.30
2008,02,05,00,50,16.10
2008,02,05,00,51,11.30
2008,02,05,00,52,9.60
2008,02,05,00,53,16.10
2008,02,05,00,54,20.90
2008,02,05,00,55,14.50
2008,02,05,00,56,11.30
2008,02,05,00,57,11.30
2008,02,05,00,58,19.30
2008,02,05,00,59,22.50
2008,02,05,01,00,22.50
2008,02,05,01,01,14.50
2008,02,05,01,02,24.20
2008,02,05,01,03,20.90
2008,02,05,01,04,12.90
2008,02,05,01,05,12.90
2008,02,05,01,06,19.30
2008,02,05,01,07,9.60
2008,02,05,01,08,6.40
2008,02,05,01,09,14.50
2008,02,05,01,10,14.50
2008,02,05,01,11,19.30
2008,02,05,01,12,24.20
2008,02,05,01,13,16.10
2008,02,05,01,14,17.70
2008,02,05,01,15,17.70
2008,02,05,01,16,17.70
2008,02,05,01,17,16.10
2008,02,05,01,18,20.90
2008,02,05,01,19,20.90
2008,02,05,01,20,16.10
2008,02,05,01,21,11.30
2008,02,05,01,22,14.50
2008,02,05,01,23,25.70
2008,02,05,01,24,20.90
2008,02,05,01,25,16.10
2008,02,05,01,26,11.30
2008,02,05,01,27,14.50
2008,02,05,01,28,16.10
2008,02,05,01,29,14.50
2008,02,05,01,30,19.30
2008,02,05,01,31,16.10
2008,02,05,01,32,11.30
2008,02,05,01,33,19.30
2008,02,05,01,34,24.20
2008,02,05,01,35,19.30
2008,02,05,01,36,12.90
2008,02,05,01,37,27.40
2008,02,05,01,38,24.20
2008,02,05,01,39,30.60
2008,02,05,01,40,19.30
2008,02,05,01,41,20.90
2008,02,05,01,42,24.20
2008,02,05,01,43,25.70
2008,02,05,01,44,27.40
2008,02,05,01,45,19.30
2008,02,05,01,46,11.30
2008,02,05,01,47,16.10
2008,02,05,01,48,20.90
2008,02,05,01,49,27.40
2008,02,05,01,50,17.70
2008,02,05,01,51,14.50
2008,02,05,01,52,22.50
2008,02,05,01,53,24.20
2008,02,05,01,54,12.90
2008,02,05,01,55,9.60
2008,02,05,01,56,14.50
2008,02,05,01,57,30.60
2008,02,05,01,58,20.90
2008,02,05,01,59,17.70
2008,02,05,02,00,24.20
2008,02,05,02,01,27.40
2008,02,05,02,02,17.70
2008,02,05,02,03,20.90
2008,02,05,02,04,29.00
2008,02,05,02,05,35.40
2008,02,05,02,06,20.90
2008,02,05,02,07,27.40
2008,02,05,02,08,22.50
2008,02,05,02,09,22.50
2008,02,05,02,10,19.30
2008,02,05,02,11,14.50
2008,02,05,02,12,20.90
2008,02,05,02,13,25.70
2008,02,05,02,14,17.70
2008,02,05,02,15,19.30
2008,02,05,02,16,24.20
2008,02,05,02,17,25.70
2008,02,05,02,18,22.50
2008,02,05,02,19,29.00
2008,02,05,02,20,11.30
2008,02,05,02,21,20.90
2008,02,05,02,22,22.50
2008,02,05,02,23,20.90
2008,02,05,02,24,25.70
2008,02,05,02,25,12.90
2008,02,05,02,26,25.70
2008,02,05,02,27,32.20
2008,02,05,02,28,24.20
2008,02,05,02,29,32.20
2008,02,05,02,30,32.20
2008,02,05,02,31,27.40
2008,02,05,02,32,24.20
2008,02,05,02,33,29.00
2008,02,05,02,34,22.50
2008,02,05,02,35,38.60
2008,02,05,02,36,29.00
2008,02,05,02,37,35.40
2008,02,05,02,38,29.00
2008,02,05,02,39,29.00
2008,02,05,02,40,27.40
2008,02,05,02,41,27.40
2008,02,05,02,42,27.40
2008,02,05,02,43,32.20
2008,02,05,02,44,41.80
2008,02,05,02,45,40.20
2008,02,05,02,46,30.60
2008,02,05,02,47,35.40
2008,02,05,02,48,37.00
2008,02,05,02,49,33.80
2008,02,05,02,50,29.00
2008,02,05,02,51,27.40
2008,02,05,02,52,33.80
2008,02,05,02,53,30.60
2008,02,05,02,54,16.10
2008,02,05,02,55,32.20
2008,02,05,02,56,24.20
2008,02,05,02,57,17.70
2008,02,05,02,58,30.60
2008,02,05,02,59,27.40
2008,02,05,03,00,20.90
2008,02,05,03,01,32.20
2008,02,05,03,02,35.40
2008,02,05,03,03,29.00
2008,02,05,03,04,27.40
2008,02,05,03,05,24.20
2008,02,05,03,06,30.60
2008,02,05,03,07,22.50
2008,02,05,03,08,22.50
2008,02,05,03,09,24.20
2008,02,05,03,10,24.20
2008,02,05,03,11,27.40
2008,02,05,03,12,32.20
2008,02,05,03,13,33.80
2008,02,05,03,14,30.60
2008,02,05,03,15,35.40
2008,02,05,03,16,37.00
2008,02,05,03,17,37.00
2008,02,05,03,18,27.40
2008,02,05,03,19,25.70
2008,02,05,03,20,25.70
2008,02,05,03,21,29.00
2008,02,05,03,22,22.50
2008,02,05,03,23,27.40
2008,02,05,03,24,24.20
2008,02,05,03,25,32.20
2008,02,05,03,26,29.00
2008,02,05,03,27,29.00
2008,02,05,03,28,30.60
2008,02,05,03,29,27.40
2008,02,05,03,30,29.00
2008,02,05,03,31,24.20
2008,02,05,03,32,29.00
2008,02,05,03,33,30.60
2008,02,05,03,34,27.40
2008,02,05,03,35,22.50
2008,02,05,03,36,22.50
2008,02,05,03,37,33.80
2008,02,05,03,38,25.70
2008,02,05,03,39,33.80
2008,02,05,03,40,30.60
2008,02,05,03,41,25.70
2008,02,05,03,42,40.20
2008,02,05,03,43,33.80
2008,02,05,03,44,25.70
2008,02,05,03,45,20.90
2008,02,05,03,46,32.20
2008,02,05,03,47,17.70
2008,02,05,03,48,30.60
2008,02,05,03,49,30.60
2008,02,05,03,50,35.40
2008,02,05,03,51,22.50
2008,02,05,03,52,27.40
2008,02,05,03,53,30.60
2008,02,05,03,54,32.20
2008,02,05,03,55,27.40
2008,02,05,03,56,27.40
2008,02,05,03,57,20.90
2008,02,05,03,58,24.20
2008,02,05,03,59,22.50
2008,02,05,04,00,29.00
2008,02,05,04,01,27.40
2008,02,05,04,02,22.50
2008,02,05,04,03,35.40
2008,02,05,04,04,25.70
2008,02,05,04,05,35.40
2008,02,05,04,06,27.40
2008,02,05,04,07,33.80
2008,02,05,04,08,25.70
2008,02,05,04,09,27.40
2008,02,05,04,10,33.80
2008,02,05,04,11,29.00
2008,02,05,04,12,20.90
2008,02,05,04,13,25.70
2008,02,05,04,14,25.70
2008,02,05,04,15,29.00
2008,02,05,04,16,24.20
2008,02,05,04,17,25.70
2008,02,05,04,18,24.20
2008,02,05,04,19,30.60
2008,02,05,04,20,24.20
2008,02,05,04,21,22.50
2008,02,05,04,22,16.10
2008,02,05,04,23,22.50
2008,02,05,04,24,22.50
2008,02,05,04,25,25.70
2008,02,05,04,26,22.50
2008,02,05,04,27,25.70
2008,02,05,04,28,30.60
2008,02,05,04,29,35.40
2008,02,05,04,30,24.20
2008,02,05,04,31,33.80
2008,02,05,04,32,40.20
2008,02,05,04,33,20.90
2008,02,05,04,34,25.70
2008,02,05,04,35,25.70
2008,02,05,04,36,22.50
2008,02,05,04,37,43.50
2008,02,05,04,38,32.20
2008,02,05,04,39,32.20
2008,02,05,04,40,25.70
2008,02,05,04,41,33.80
2008,02,05,04,42,35.40
2008,02,05,04,43,35.40
2008,02,05,04,44,32.20
2008,02,05,04,45,30.60
2008,02,05,04,46,25.70
2008,02,05,04,47,35.40
2008,02,05,04,48,32.20
2008,02,05,04,49,25.70
2008,02,05,04,50,35.40
2008,02,05,04,51,22.50
2008,02,05,04,52,27.40
2008,02,05,04,53,22.50
2008,02,05,04,54,25.70
2008,02,05,04,55,33.80
2008,02,05,04,56,20.90
2008,02,05,04,57,24.20
2008,02,05,04,58,22.50
2008,02,05,04,59,17.70
2008,02,05,05,00,17.70
2008,02,05,05,01,24.20
2008,02,05,05,02,25.70
2008,02,05,05,03,20.90
2008,02,05,05,04,25.70
2008,02,05,05,05,20.90
2008,02,05,05,06,32.20
2008,02,05,05,07,33.80
2008,02,05,05,08,25.70
2008,02,05,05,09,33.80
2008,02,05,05,10,29.00
2008,02,05,05,11,32.20
2008,02,05,05,12,29.00
2008,02,05,05,13,27.40
2008,02,05,05,14,30.60
2008,02,05,05,15,19.30
2008,02,05,05,16,32.20
2008,02,05,05,17,27.40
2008,02,05,05,18,20.90
2008,02,05,05,19,24.20
2008,02,05,05,20,25.70
2008,02,05,05,21,25.70
2008,02,05,05,22,33.80
2008,02,05,05,23,43.50
2008,02,05,05,24,30.60
2008,02,05,05,25,24.20
2008,02,05,05,26,27.40
2008,02,05,05,27,35.40
2008,02,05,05,28,32.20
2008,02,05,05,29,25.70
2008,02,05,05,30,32.20
2008,02,05,05,31,40.20
2008,02,05,05,32,32.20
2008,02,05,05,33,33.80
2008,02,05,05,34,33.80
2008,02,05,05,35,33.80
2008,02,05,05,36,25.70
2008,02,05,05,37,24.20
2008,02,05,05,38,33.80
2008,02,05,05,39,20.90
2008,02,05,05,40,32.20
2008,02,05,05,41,25.70
2008,02,05,05,42,29.00
2008,02,05,05,43,24.20
2008,02,05,05,44,27.40
2008,02,05,05,45,22.50
2008,02,05,05,46,33.80
2008,02,05,05,47,35.40
2008,02,05,05,48,30.60
2008,02,05,05,49,27.40
2008,02,05,05,50,32.20
2008,02,05,05,51,24.20
2008,02,05,05,52,22.50
2008,02,05,05,53,17.70
2008,02,05,05,54,20.90
2008,02,05,05,55,35.40
2008,02,05,05,56,25.70
2008,02,05,05,57,38.60
2008,02,05,05,58,30.60
2008,02,05,05,59,35.40
2008,02,05,06,00,30.60
2008,02,05,06,01,32.20
2008,02,05,06,02,20.90
2008,02,05,06,03,17.70
2008,02,05,06,04,29.00
2008,02,05,06,05,27.40
2008,02,05,06,06,27.40
2008,02,05,06,07,20.90
2008,02,05,06,08,22.50
2008,02,05,06,09,24.20
2008,02,05,06,10,38.60
2008,02,05,06,11,33.80
2008,02,05,06,12,19.30
2008,02,05,06,13,27.40
2008,02,05,06,14,35.40
2008,02,05,06,15,29.00
2008,02,05,06,16,30.60
2008,02,05,06,17,25.70
2008,02,05,06,18,29.00
2008,02,05,06,19,25.70
2008,02,05,06,20,35.40
2008,02,05,06,21,29.00
2008,02,05,06,22,37.00
2008,02,05,06,23,29.00
2008,02,05,06,24,29.00
2008,02,05,06,25,24.20
2008,02,05,06,26,27.40
2008,02,05,06,27,33.80
2008,02,05,06,28,32.20
2008,02,05,06,29,38.60
2008,02,05,06,30,25.70
2008,02,05,06,31,30.60
2008,02,05,06,32,27.40
2008,02,05,06,33,20.90
2008,02,05,06,34,32.20
2008,02,05,06,35,29.00
2008,02,05,06,36,35.40
2008,02,05,06,37,32.20
2008,02,05,06,38,32.20
2008,02,05,06,39,33.80
2008,02,05,06,40,33.80
2008,02,05,06,41,29.00
2008,02,05,06,42,29.00
2008,02,05,06,43,27.40
2008,02,05,06,44,20.90
2008,02,05,06,45,30.60
2008,02,05,06,46,30.60
2008,02,05,06,47,43.50
2008,02,05,06,48,30.60
2008,02,05,06,49,32.20
2008,02,05,06,50,33.80
2008,02,05,06,51,33.80
2008,02,05,06,52,43.50
2008,02,05,06,53,45.10
2008,02,05,06,54,35.40
2008,02,05,06,55,40.20
2008,02,05,06,56,45.10
2008,02,05,06,57,41.80
2008,02,05,06,58,37.00
2008,02,05,06,59,25.70
2008,02,05,07,00,32.20
2008,02,05,07,01,30.60
2008,02,05,07,02,27.40
2008,02,05,07,03,37.00
2008,02,05,07,04,45.10
2008,02,05,07,05,32.20
2008,02,05,07,06,29.00
2008,02,05,07,07,41.80
2008,02,05,07,08,35.40
2008,02,05,07,09,37.00
2008,02,05,07,10,27.40
2008,02,05,07,11,32.20
2008,02,05,07,12,35.40
2008,02,05,07,13,38.60
2008,02,05,07,14,37.00
2008,02,05,07,15,25.70
2008,02,05,07,16,30.60
2008,02,05,07,17,32.20
2008,02,05,07,18,37.00
2008,02,05,07,19,30.60
2008,02,05,07,20,24.20
2008,02,05,07,21,37.00
2008,02,05,07,22,33.80
2008,02,05,07,23,40.20
2008,02,05,07,24,27.40
2008,02,05,07,25,30.60
2008,02,05,07,26,38.60
2008,02,05,07,27,33.80
2008,02,05,07,28,38.60
2008,02,05,07,29,38.60
2008,02,05,07,30,46.70
2008,02,05,07,31,37.00
2008,02,05,07,32,41.80
2008,02,05,07,33,46.70
2008,02,05,07,34,38.60
2008,02,05,07,35,33.80
2008,02,05,07,36,53.10
2008,02,05,07,37,37.00
2008,02,05,07,38,33.80
2008,02,05,07,39,35.40
2008,02,05,07,40,46.70
2008,02,05,07,41,37.00
2008,02,05,07,42,32.20
2008,02,05,07,43,46.70
2008,02,05,07,44,45.10
2008,02,05,07,45,35.40
2008,02,05,07,46,35.40
2008,02,05,07,47,27.40
2008,02,05,07,48,37.00
2008,02,05,07,49,40.20
2008,02,05,07,50,38.60
2008,02,05,07,51,41.80
2008,02,05,07,52,43.50
2008,02,05,07,53,45.10
2008,02,05,07,54,51.50
2008,02,05,07,55,32.20
2008,02,05,07,56,40.20
2008,02,05,07,57,37.00
2008,02,05,07,58,41.80
2008,02,05,07,59,41.80
2008,02,05,08,00,29.00
2008,02,05,08,01,38.60
2008,02,05,08,02,51.50
2008,02,05,08,03,40.20
2008,02,05,08,04,25.70
2008,02,05,08,05,20.90
2008,02,05,08,06,33.80
2008,02,05,08,07,33.80
2008,02,05,08,08,27.40
2008,02,05,08,09,43.50
2008,02,05,08,10,38.60
2008,02,05,08,11,37.00
2008,02,05,08,12,35.40
2008,02,05,08,13,29.00
2008,02,05,08,14,27.40
2008,02,05,08,15,29.00
2008,02,05,08,16,43.50
2008,02,05,08,17,29.00
2008,02,05,08,18,25.70
2008,02,05,08,19,30.60
2008,02,05,08,20,30.60
2008,02,05,08,21,25.70
2008,02,05,08,22,35.40
2008,02,05,08,23,32.20
2008,02,05,08,24,27.40
2008,02,05,08,25,25.70
2008,02,05,08,26,30.60
2008,02,05,08,27,32.20
2008,02,05,08,28,32.20
2008,02,05,08,29,29.00
2008,02,05,08,30,24.20
2008,02,05,08,31,25.70
2008,02,05,08,32,29.00
2008,02,05,08,33,25.70
2008,02,05,08,34,30.60
2008,02,05,08,35,27.40
2008,02,05,08,36,30.60
2008,02,05,08,37,43.50
2008,02,05,08,38,32.20
2008,02,05,08,39,24.20
2008,02,05,08,40,32.20
2008,02,05,08,41,29.00
2008,02,05,08,42,35.40
2008,02,05,08,43,32.20
2008,02,05,08,44,37.00
2008,02,05,08,45,32.20
2008,02,05,08,46,29.00
2008,02,05,08,47,30.60
2008,02,05,08,48,33.80
2008,02,05,08,49,40.20
2008,02,05,08,50,33.80
2008,02,05,08,51,41.80
2008,02,05,08,52,37.00
2008,02,05,08,53,37.00
2008,02,05,08,54,35.40
2008,02,05,08,55,35.40
2008,02,05,08,56,43.50
2008,02,05,08,57,46.70
2008,02,05,08,58,48.30
2008,02,05,08,59,48.30
2008,02,05,09,00,35.40
2008,02,05,09,01,30.60
2008,02,05,09,02,51.50
2008,02,05,09,03,53.10
2008,02,05,09,04,37.00
2008,02,05,09,05,41.80
2008,02,05,09,06,35.40
2008,02,05,09,07,46.70
2008,02,05,09,08,37.00
2008,02,05,09,09,29.00
2008,02,05,09,10,35.40
2008,02,05,09,11,45.10
2008,02,05,09,12,37.00
2008,02,05,09,13,30.60
2008,02,05,09,14,35.40
2008,02,05,09,15,33.80
2008,02,05,09,16,43.50
2008,02,05,09,17,43.50
2008,02,05,09,18,33.80
2008,02,05,09,19,40.20
2008,02,05,09,20,38.60
2008,02,05,09,21,48.30
2008,02,05,09,22,40.20
2008,02,05,09,23,40.20
2008,02,05,09,24,45.10
2008,02,05,09,25,49.90
2008,02,05,09,26,46.70
2008,02,05,09,27,46.70
2008,02,05,09,28,49.90
2008,02,05,09,29,43.50
2008,02,05,09,30,35.40
2008,02,05,09,31,35.40
2008,02,05,09,32,48.30
2008,02,05,09,33,35.40
2008,02,05,09,34,32.20
2008,02,05,09,35,30.60
2008,02,05,09,36,37.00
2008,02,05,09,37,30.60
2008,02,05,09,38,41.80
2008,02,05,09,39,40.20
2008,02,05,09,40,27.40
2008,02,05,09,41,48.30
2008,02,05,09,42,37.00
2008,02,05,09,43,29.00
2008,02,05,09,44,29.00
2008,02,05,09,45,27.40
2008,02,05,09,46,33.80
2008,02,05,09,47,32.20
2008,02,05,09,48,27.40
2008,02,05,09,49,29.00
2008,02,05,09,50,24.20
2008,02,05,09,51,43.50
2008,02,05,09,52,29.00
2008,02,05,09,53,30.60
2008,02,05,09,54,30.60
2008,02,05,09,55,38.60
2008,02,05,09,56,27.40
2008,02,05,09,57,27.40
2008,02,05,09,58,24.20
2008,02,05,09,59,30.60
2008,02,05,10,00,19.30
2008,02,05,10,01,19.30
2008,02,05,10,02,9.60
2008,02,05,10,03,22.50
2008,02,05,10,04,27.40
2008,02,05,10,05,25.70
2008,02,05,10,06,22.50
2008,02,05,10,07,24.20
2008,02,05,10,08,17.70
2008,02,05,10,09,20.90
2008,02,05,10,10,16.10
2008,02,05,10,11,9.60
2008,02,05,10,12,8.10
2008,02,05,10,13,8.10
2008,02,05,10,14,14.50
2008,02,05,10,15,11.30
2008,02,05,10,16,16.10
2008,02,05,10,17,16.10
2008,02,05,10,18,8.10
2008,02,05,10,19,22.50
2008,02,05,10,20,22.50
2008,02,05,10,21,17.70
2008,02,05,10,22,16.10
2008,02,05,10,23,19.30
2008,02,05,10,24,9.60
2008,02,05,10,25,16.10
2008,02,05,10,26,9.60
2008,02,05,10,27,11.30
2008,02,05,10,28,20.90
2008,02,05,10,29,11.30
2008,02,05,10,30,9.60
2008,02,05,10,31,17.70
2008,02,05,10,32,8.10
2008,02,05,10,33,8.10
2008,02,05,10,34,4.80
2008,02,05,10,35,9.60
2008,02,05,10,36,12.90
2008,02,05,10,37,16.10
2008,02,05,10,38,8.10
2008,02,05,10,39,17.70
2008,02,05,10,40,11.30
2008,02,05,10,41,6.40
2008,02,05,10,42,6.40
2008,02,05,10,43,0.00
2008,02,05,10,44,0.00
2008,02,05,10,45,4.80
2008,02,05,10,46,3.20
2008,02,05,10,47,1.60
2008,02,05,10,48,0.00
2008,02,05,10,49,1.60
2008,02,05,10,50,1.60
2008,02,05,10,51,0.00
2008,02,05,10,52,1.60
2008,02,05,10,53,4.80
2008,02,05,10,54,6.40
2008,02,05,10,55,8.10
2008,02,05,10,56,6.40
2008,02,05,10,57,3.20
2008,02,05,10,58,4.80
2008,02,05,10,59,8.10
2008,02,05,11,00,9.60
2008,02,05,11,01,9.60
2008,02,05,11,02,11.30
2008,02,05,11,03,8.10
2008,02,05,11,04,9.60
2008,02,05,11,05,6.40
2008,02,05,11,06,9.60
2008,02,05,11,07,9.60
2008,02,05,11,08,9.60
2008,02,05,11,09,11.30
2008,02,05,11,10,6.40
2008,02,05,11,11,8.10
2008,02,05,11,12,6.40
2008,02,05,11,13,6.40
2008,02,05,11,14,3.20
2008,02,05,11,15,4.80
2008,02,05,11,16,3.20
2008,02,05,11,17,4.80
2008,02,05,11,18,6.40
2008,02,05,11,19,4.80
2008,02,05,11,20,4.80
2008,02,05,11,21,1.60
2008,02,05,11,22,3.20
2008,02,05,11,23,4.80
2008,02,05,11,24,3.20
2008,02,05,11,25,8.10
2008,02,05,11,26,6.40
2008,02,05,11,27,0.00
2008,02,05,11,28,6.40
2008,02,05,11,29,4.80
2008,02,05,11,30,3.20
2008,02,05,11,31,4.80
2008,02,05,11,32,6.40
2008,02,05,11,33,9.60
2008,02,05,11,34,12.90
2008,02,05,11,35,12.90
2008,02,05,11,36,11.30
2008,02,05,11,37,11.30
2008,02,05,11,38,9.60
2008,02,05,11,39,12.90
2008,02,05,11,40,11.30
2008,02,05,11,41,11.30
2008,02,05,11,42,9.60
2008,02,05,11,43,9.60
2008,02,05,11,44,8.10
2008,02,05,11,45,6.40
2008,02,05,11,46,6.40
2008,02,05,11,47,8.10
2008,02,05,11,48,12.90
2008,02,05,11,49,14.50
2008,02,05,11,50,11.30
2008,02,05,11,51,14.50
2008,02,05,11,52,14.50
2008,02,05,11,53,11.30
2008,02,05,11,54,11.30
2008,02,05,11,55,6.40
2008,02,05,11,56,8.10
2008,02,05,11,57,6.40
2008,02,05,11,58,3.20
2008,02,05,11,59,3.20
2008,02,05,12,00,6.40
2008,02,05,12,01,3.20
2008,02,05,12,02,3.20
2008,02,05,12,03,3.20
2008,02,05,12,04,8.10
2008,02,05,12,05,6.40
2008,02,05,12,06,3.20
2008,02,05,12,07,3.20
2008,02,05,12,08,12.90
2008,02,05,12,09,6.40
2008,02,05,12,10,14.50
2008,02,05,12,11,8.10
2008,02,05,12,12,8.10
2008,02,05,12,13,3.20
2008,02,05,12,14,6.40
2008,02,05,12,15,6.40
2008,02,05,12,16,3.20
2008,02,05,12,17,11.30
2008,02,05,12,18,4.80
2008,02,05,12,19,14.50
2008,02,05,12,20,9.60
2008,02,05,12,21,8.10
2008,02,05,12,22,9.60
2008,02,05,12,23,4.80
2008,02,05,12,24,3.20
2008,02,05,12,25,3.20
2008,02,05,12,26,3.20
2008,02,05,12,27,3.20
2008,02,05,12,28,4.80
2008,02,05,12,29,4.80
2008,02,05,12,30,8.10
2008,02,05,12,31,6.40
2008,02,05,12,32,8.10
2008,02,05,12,33,6.40
2008,02,05,12,34,9.60
2008,02,05,12,35,8.10
2008,02,05,12,36,8.10
2008,02,05,12,37,4.80
2008,02,05,12,38,11.30
2008,02,05,12,39,20.90
2008,02,05,12,40,20.90
2008,02,05,12,41,6.40
2008,02,05,12,42,3.20
2008,02,05,12,43,8.10
2008,02,05,12,44,11.30
2008,02,05,12,45,4.80
2008,02,05,12,46,4.80
2008,02,05,12,47,9.60
2008,02,05,12,48,14.50
2008,02,05,12,49,8.10
2008,02,05,12,50,8.10
2008,02,05,12,51,8.10
2008,02,05,12,52,16.10
2008,02,05,12,53,20.90
2008,02,05,12,54,16.10
2008,02,05,12,55,16.10
2008,02,05,12,56,11.30
2008,02,05,12,57,8.10
2008,02,05,12,58,12.90
2008,02,05,12,59,9.60
2008,02,05,13,00,8.10
2008,02,05,13,01,11.30
2008,02,05,13,02,12.90
2008,02,05,13,03,12.90
2008,02,05,13,04,12.90
2008,02,05,13,05,9.60
2008,02,05,13,06,6.40
2008,02,05,13,07,19.30
2008,02,05,13,08,9.60
2008,02,05,13,09,16.10
2008,02,05,13,10,32.20
2008,02,05,13,11,16.10
2008,02,05,13,12,4.80
2008,02,05,13,13,14.50
2008,02,05,13,14,16.10
2008,02,05,13,15,25.70
2008,02,05,13,16,17.70
2008,02,05,13,17,9.60
2008,02,05,13,18,14.50
2008,02,05,13,19,19.30
2008,02,05,13,20,19.30
2008,02,05,13,21,11.30
2008,02,05,13,22,17.70
2008,02,05,13,23,17.70
2008,02,05,13,24,11.30
2008,02,05,13,25,17.70
2008,02,05,13,26,16.10
2008,02,05,13,27,8.10
2008,02,05,13,28,4.80
2008,02,05,13,29,11.30
2008,02,05,13,30,8.10
2008,02,05,13,31,17.70
2008,02,05,13,32,14.50
2008,02,05,13,33,20.90
2008,02,05,13,34,19.30
2008,02,05,13,35,12.90
2008,02,05,13,36,14.50
2008,02,05,13,37,9.60
2008,02,05,13,38,16.10
2008,02,05,13,39,9.60
2008,02,05,13,40,8.10
2008,02,05,13,41,14.50
2008,02,05,13,42,16.10
2008,02,05,13,43,19.30
2008,02,05,13,44,22.50
2008,02,05,13,45,17.70
2008,02,05,13,46,19.30
2008,02,05,13,47,20.90
2008,02,05,13,48,11.30
2008,02,05,13,49,22.50
2008,02,05,13,50,17.70
2008,02,05,13,51,19.30
2008,02,05,13,52,14.50
2008,02,05,13,53,24.20
2008,02,05,13,54,29.00
2008,02,05,13,55,27.40
2008,02,05,13,56,48.30
2008,02,05,13,57,16.10
2008,02,05,13,58,14.50
2008,02,05,13,59,9.60
2008,02,05,14,00,14.50
2008,02,05,14,01,12.90
2008,02,05,14,02,14.50
2008,02,05,14,03,9.60
2008,02,05,14,04,16.10
2008,02,05,14,05,14.50
2008,02,05,14,06,14.50
2008,02,05,14,07,16.10
2008,02,05,14,08,16.10
2008,02,05,14,09,14.50
2008,02,05,14,10,14.50
2008,02,05,14,11,16.10
2008,02,05,14,12,17.70
2008,02,05,14,13,25.70
2008,02,05,14,14,20.90
2008,02,05,14,15,17.70
2008,02,05,14,16,11.30
2008,02,05,14,17,11.30
2008,02,05,14,18,8.10
2008,02,05,14,19,11.30
2008,02,05,14,20,17.70
2008,02,05,14,21,19.30
2008,02,05,14,22,16.10
2008,02,05,14,23,6.40
2008,02,05,14,24,11.30
2008,02,05,14,25,16.10
2008,02,05,14,26,14.50
2008,02,05,14,27,16.10
2008,02,05,14,28,16.10
2008,02,05,14,29,27.40
2008,02,05,14,30,14.50
2008,02,05,14,31,30.60
2008,02,05,14,32,27.40
2008,02,05,14,33,17.70
2008,02,05,14,34,29.00
2008,02,05,14,35,19.30
2008,02,05,14,36,29.00
2008,02,05,14,37,29.00
2008,02,05,14,38,27.40
2008,02,05,14,39,29.00
2008,02,05,14,40,32.20
2008,02,05,14,41,35.40
2008,02,05,14,42,38.60
2008,02,05,14,43,33.80
2008,02,05,14,44,35.40
2008,02,05,14,45,37.00
2008,02,05,14,46,40.20
2008,02,05,14,47,43.50
2008,02,05,14,48,43.50
2008,02,05,14,49,64.40
2008,02,05,14,50,37.00
2008,02,05,14,51,51.50
2008,02,05,14,52,45.10
2008,02,05,14,53,59.50
2008,02,05,14,54,46.70
2008,02,05,14,55,40.20
2008,02,05,14,56,43.50
2008,02,05,14,57,61.20
2008,02,05,14,58,43.50
2008,02,05,14,59,48.30
2008,02,05,15,00,45.10
2008,02,05,15,01,41.80
2008,02,05,16,15,25.70
2008,02,05,16,16,32.20
2008,02,05,16,17,45.10
2008,02,05,16,18,48.30
2008,02,05,16,19,51.50
2008,02,05,16,20,38.60
2008,02,05,16,21,40.20
2008,02,05,16,22,41.80
2008,02,05,16,23,27.40
2008,02,05,16,24,29.00
2008,02,05,16,25,14.50
2008,02,05,16,26,35.40
2008,02,05,16,27,33.80
2008,02,05,16,28,35.40
2008,02,05,16,29,32.20
2008,02,05,16,30,20.90
2008,02,05,16,31,33.80
2008,02,05,16,32,43.50
2008,02,05,16,33,19.30
2008,02,05,16,34,25.70
2008,02,05,16,35,14.50
2008,02,05,16,36,32.20
2008,02,05,16,37,17.70
2008,02,05,16,38,14.50
2008,02,05,16,39,19.30
2008,02,05,16,40,17.70
2008,02,05,16,41,27.40
2008,02,05,16,42,29.00
2008,02,05,16,43,32.20
2008,02,05,16,44,24.20
2008,02,05,16,45,19.30
2008,02,05,16,46,16.10
2008,02,05,16,47,14.50
2008,02,05,16,48,12.90
2008,02,05,16,49,19.30
2008,02,05,16,50,16.10
2008,02,05,16,51,33.80
2008,02,05,16,52,17.70
2008,02,05,16,53,24.20
2008,02,05,16,54,35.40
2008,02,05,16,55,32.20
2008,02,05,16,56,14.50
2008,02,05,16,57,14.50
2008,02,05,16,58,20.90
2008,02,05,16,59,30.60
2008,02,05,17,00,27.40
2008,02,05,17,01,20.90
2008,02,05,17,02,16.10
2008,02,05,17,03,24.20
2008,02,05,17,04,14.50
2008,02,05,17,05,11.30
2008,02,05,17,06,14.50
2008,02,05,17,07,16.10
2008,02,05,17,08,17.70
2008,02,05,17,09,20.90
2008,02,05,17,10,17.70
2008,02,05,17,11,20.90
2008,02,05,17,12,16.10
2008,02,05,17,13,29.00
2008,02,05,17,14,20.90
2008,02,05,17,15,20.90
2008,02,05,17,16,19.30
2008,02,05,17,17,24.20
2008,02,05,17,18,11.30
2008,02,05,17,19,14.50
2008,02,05,17,20,20.90
2008,02,05,17,21,16.10
2008,02,05,17,22,20.90
2008,02,05,17,23,19.30
2008,02,05,17,24,9.60
2008,02,05,17,25,24.20
2008,02,05,17,26,20.90
2008,02,05,17,27,16.10
2008,02,05,17,28,11.30
2008,02,05,17,29,20.90
2008,02,05,17,30,25.70
2008,02,05,17,31,17.70
2008,02,05,17,32,19.30
2008,02,05,17,33,22.50
2008,02,05,17,34,9.60
2008,02,05,17,35,8.10
2008,02,05,17,36,16.10
2008,02,05,17,37,25.70
2008,02,05,17,38,16.10
2008,02,05,17,39,9.60
2008,02,05,17,40,9.60
2008,02,05,17,41,17.70
2008,02,05,17,42,14.50
2008,02,05,17,43,16.10
2008,02,05,17,44,25.70
2008,02,05,17,45,17.70
2008,02,05,17,46,17.70
2008,02,05,17,47,20.90
2008,02,05,17,48,17.70
2008,02,05,17,49,17.70
2008,02,05,17,50,22.50
2008,02,05,17,51,19.30
2008,02,05,17,52,16.10
2008,02,05,17,53,17.70
2008,02,05,17,54,8.10
2008,02,05,17,55,16.10
2008,02,05,17,56,14.50
2008,02,05,17,57,11.30
2008,02,05,17,58,11.30
2008,02,05,17,59,14.50
2008,02,05,18,00,12.90
2008,02,05,18,01,9.60
2008,02,05,18,02,9.60
2008,02,05,18,03,9.60
2008,02,05,18,04,6.40
2008,02,05,18,05,9.60
2008,02,05,18,06,8.10
2008,02,05,18,07,11.30
2008,02,05,18,08,16.10
2008,02,05,18,09,12.90
2008,02,05,18,10,9.60
2008,02,05,18,11,24.20
2008,02,05,18,12,17.70
2008,02,05,18,13,17.70
2008,02,05,18,14,17.70
2008,02,05,18,15,14.50
2008,02,05,18,16,12.90
2008,02,05,18,17,17.70
2008,02,05,18,18,30.60
2008,02,05,18,19,24.20
2008,02,05,18,20,20.90
2008,02,05,18,21,24.20
2008,02,05,18,22,22.50
2008,02,05,18,23,16.10
2008,02,05,18,24,8.10
2008,02,05,18,25,3.20
2008,02,05,18,26,11.30
2008,02,05,18,27,25.70
2008,02,05,18,28,11.30
2008,02,05,18,29,8.10
2008,02,05,18,30,20.90
2008,02,05,18,31,16.10
2008,02,05,18,32,24.20
2008,02,05,18,33,33.80
2008,02,05,18,34,14.50
2008,02,05,18,35,22.50
2008,02,05,18,36,30.60
2008,02,05,18,37,16.10
2008,02,05,18,38,27.40
2008,02,05,18,39,22.50